Language: 


Des rapports , des résumés tant et plus, au choix de chacun....


Données statistiques de la station
Quotidien Rapport Janvier 24, 2018 Unités:  Anglais    Métrique   les deux
« Précédent Jour
Suivant Jour »
Quotidien Hebdomadaire Mensuel Annuel Actuel
  Haut: Bas: Moyen:
Température: TemperatureC °F 0.0 °F 12 °F
Pt de rosée: DewpointC °F 7.0 °F 11.1 °F
Humidité: Humidity % 0 % 87 %
Vitesse du vent: WindSpeedKMH mph 0.0 mph 17.9 mph
Rafales: WindSpeedGustKMH mph - -
Vent:- - SW
Pression: PressurehPa in 1007.0 in -
Précipitation: 4.3 in    
Historical Graphs
 
 
Données statistiques pour Janvier 24, 2018
Heure Température Point de rosée Pression Vent Vitesse du vent Refales Humidité Pluie (taux horaire)
TemperatureC °F DewpointC °F PressurehPa in Calm     Humidity % HourlyPrecipMM in
00:02 11.8 °F 12.0 °F 1016.8 in SSW 10.5 mph 10.5 mph 98 % 0.5 in
00:12 11.9 °F 12.0 °F 1016.8 in SSW 10.5 mph 10.5 mph 98 % 1.0 in
00:17 11.9 °F 12.0 °F 1016.8 in SSW 10.5 mph 10.5 mph 98 % 1.0 in
00:22 11.9 °F 12.0 °F 1016.8 in SW 13.7 mph 13.7 mph 98 % 1.0 in
00:27 11.9 °F 12.0 °F 1016.8 in SW 13.7 mph 13.7 mph 98 % 1.0 in
00:32 11.9 °F 12.0 °F 1016.8 in SW 13.7 mph 13.7 mph 98 % 0.8 in
00:38 11.9 °F 12.0 °F 1016.8 in SW 13.7 mph 13.7 mph 98 % 0.8 in
00:43 11.9 °F 12.0 °F 1016.8 in SW 13.7 mph 13.7 mph 98 % 0.8 in
00:48 11.9 °F 12.0 °F 1016.8 in SW 13.7 mph 13.7 mph 98 % 0.8 in
00:58 12.0 °F 12.0 °F 1016.8 in SW 13.7 mph 13.7 mph 98 % 0.8 in
01:03 12.0 °F 12.0 °F 1016.8 in SW 13.7 mph 13.7 mph 98 % 0.8 in
01:08 12.0 °F 12.0 °F 1016.8 in SW 13.7 mph 13.7 mph 98 % 0.3 in
01:13 12.0 °F 12.0 °F 1016.8 in SW 13.7 mph 13.7 mph 98 % 0.3 in
01:18 12.0 °F 12.0 °F 1016.8 in SW 13.7 mph 13.7 mph 98 % 0.3 in
01:23 12.0 °F 12.0 °F 1016.8 in SW 13.7 mph 13.7 mph 98 % 0.3 in
01:28 12.0 °F 12.0 °F 1016.8 in SW 13.7 mph 13.7 mph 98 % 0.3 in
01:33 12.0 °F 12.0 °F 1016.1 in SW 13.7 mph 13.7 mph 98 % 0.3 in
01:38 12.0 °F 12.0 °F 1016.1 in SW 13.7 mph 13.7 mph 98 % 0.3 in
01:48 12.0 °F 12.0 °F 1016.1 in SW 13.7 mph 13.7 mph 98 % 0.3 in
02:03 12.1 °F 12.0 °F 1016.8 in SW 13.7 mph 13.7 mph 98 % 0.0 in
02:08 12.1 °F 12.0 °F 1016.8 in SW 13.7 mph 13.7 mph 98 % 0.0 in
02:13 12.1 °F 12.0 °F 1016.8 in SW 13.7 mph 13.7 mph 98 % 0.3 in
02:18 12.0 °F 12.0 °F 1016.8 in SW 13.7 mph 13.7 mph 98 % 0.3 in
02:23 12.1 °F 12.0 °F 1016.8 in SW 13.7 mph 13.7 mph 98 % 0.3 in
02:28 12.0 °F 12.0 °F 1016.8 in SW 13.7 mph 13.7 mph 98 % 0.3 in
02:33 12.0 °F 12.0 °F 1018.2 in SW 13.7 mph 13.7 mph 98 % 0.3 in
02:38 12.0 °F 12.0 °F 1018.2 in SW 13.7 mph 13.7 mph 98 % 0.3 in
02:43 12.0 °F 12.0 °F 1018.2 in SW 13.7 mph 13.7 mph 98 % 0.3 in
02:48 12.0 °F 12.0 °F 1016.8 in SW 13.7 mph 13.7 mph 98 % 0.3 in
02:53 12.0 °F 12.0 °F 1016.8 in SW 13.7 mph 13.7 mph 98 % 0.3 in
02:58 12.0 °F 12.0 °F 1016.8 in SW 13.7 mph 13.7 mph 98 % 0.3 in
03:03 12.0 °F 12.0 °F 1016.8 in SW 13.7 mph 13.7 mph 98 % 0.3 in
03:08 12.0 °F 12.0 °F 1016.8 in SW 13.7 mph 13.7 mph 98 % 0.3 in
03:13 12.0 °F 12.0 °F 1016.8 in SW 13.7 mph 13.7 mph 98 % 0.0 in
03:18 12.0 °F 12.0 °F 1016.8 in SW 13.7 mph 13.7 mph 98 % 0.0 in
03:23 12.0 °F 12.0 °F 1016.8 in SW 13.7 mph 13.7 mph 98 % 0.0 in
03:29 12.0 °F 12.0 °F 1016.1 in SW 13.7 mph 13.7 mph 98 % 0.0 in
03:34 12.0 °F 12.0 °F 1016.1 in SW 13.7 mph 13.7 mph 98 % 0.0 in
03:39 12.1 °F 12.0 °F 1016.1 in SW 13.7 mph 13.7 mph 98 % 0.0 in
03:44 12.0 °F 12.0 °F 1016.1 in SW 13.7 mph 13.7 mph 98 % 0.0 in
03:49 12.1 °F 12.0 °F 1016.1 in SW 13.7 mph 13.7 mph 98 % 0.0 in
03:54 12.1 °F 12.0 °F 1016.1 in SW 13.7 mph 13.7 mph 98 % 0.0 in
03:59 12.1 °F 12.0 °F 1016.1 in SW 13.7 mph 13.7 mph 98 % 0.0 in
04:04 12.1 °F 12.0 °F 1016.1 in SW 13.7 mph 13.7 mph 98 % 0.0 in
04:09 12.1 °F 12.0 °F 1016.1 in SW 13.7 mph 13.7 mph 98 % 0.0 in
04:14 12.2 °F 12.0 °F 1015.1 in SW 13.7 mph 13.7 mph 98 % 0.0 in
04:19 12.2 °F 12.0 °F 1015.1 in SW 13.7 mph 13.7 mph 98 % 0.0 in
04:24 12.2 °F 12.0 °F 1015.1 in SW 13.7 mph 13.7 mph 98 % 0.0 in
04:27 12.2 °F 12.0 °F 1015.1 in SW 13.7 mph 13.7 mph 98 % 0.0 in
04:32 12.2 °F 12.0 °F 1015.1 in SSW 14.0 mph 14.0 mph 98 % 0.0 in
04:37 12.2 °F 12.0 °F 1015.1 in SSW 15.8 mph 16.6 mph 98 % 0.0 in
04:47 12.3 °F 13.0 °F 1015.1 in SSW 13.7 mph 16.3 mph 98 % 0.0 in
04:57 12.3 °F 13.0 °F 1015.1 in SW 14.8 mph 16.9 mph 98 % 0.0 in
05:02 12.4 °F 13.0 °F 1015.1 in SW 14.8 mph 16.3 mph 98 % 0.0 in
05:07 12.3 °F 13.0 °F 1015.1 in SW 9.0 mph 17.2 mph 98 % 0.0 in
05:12 12.3 °F 13.0 °F 1015.1 in South 13.0 mph 21.6 mph 98 % 0.0 in
05:17 12.4 °F 13.0 °F 1014.1 in SSW 15.8 mph 21.6 mph 98 % 0.0 in
05:27 12.4 °F 13.0 °F 1014.1 in South 15.8 mph 19.8 mph 98 % 0.0 in
05:32 12.4 °F 13.0 °F 1015.1 in SW 10.5 mph 19.8 mph 98 % 0.0 in
05:37 12.4 °F 13.0 °F 1015.1 in SSW 14.0 mph 14.0 mph 98 % 0.0 in
05:42 12.4 °F 13.0 °F 1015.1 in WSW 12.6 mph 15.4 mph 98 % 0.0 in
05:47 12.4 °F 13.0 °F 1015.1 in SW 11.9 mph 20.6 mph 98 % 0.0 in
05:52 12.5 °F 13.0 °F 1015.1 in South 20.6 mph 20.6 mph 98 % 0.0 in
05:57 12.4 °F 13.0 °F 1015.1 in SSW 14.0 mph 20.6 mph 98 % 0.0 in
06:02 12.4 °F 13.0 °F 1015.1 in SSW 12.2 mph 20.6 mph 98 % 0.0 in
06:13 12.4 °F 13.0 °F 1015.1 in SSW 9.0 mph 15.4 mph 98 % 0.0 in
06:18 12.4 °F 13.0 °F 1014.1 in SSW 15.8 mph 15.8 mph 98 % 0.0 in
06:23 12.4 °F 13.0 °F 1014.1 in SW 14.8 mph 15.8 mph 98 % 0.0 in
06:28 12.4 °F 13.0 °F 1014.1 in WSW 9.7 mph 20.1 mph 98 % 0.0 in
06:33 12.4 °F 13.0 °F 1014.1 in South 13.7 mph 20.1 mph 98 % 0.0 in
06:38 12.4 °F 13.0 °F 1014.1 in SSW 16.9 mph 18.0 mph 98 % 0.0 in
06:43 12.4 °F 13.0 °F 1014.1 in SSW 15.8 mph 18.0 mph 98 % 0.0 in
06:48 12.5 °F 13.0 °F 1014.1 in SW 10.5 mph 22.7 mph 98 % 0.0 in
06:53 12.5 °F 13.0 °F 1014.1 in SSW 9.0 mph 22.7 mph 98 % 0.0 in
06:58 12.5 °F 13.0 °F 1014.1 in SW 16.9 mph 17.7 mph 98 % 0.0 in
07:03 12.5 °F 13.0 °F 1014.1 in SSW 19.8 mph 19.8 mph 98 % 0.0 in
07:13 12.5 °F 13.0 °F 1014.1 in WSW 20.1 mph 21.6 mph 98 % 0.0 in
07:23 12.6 °F 13.0 °F 1014.1 in SSW 15.8 mph 20.1 mph 98 % 0.0 in
07:28 12.6 °F 13.0 °F 1014.1 in SSW 15.8 mph 15.8 mph 98 % 0.0 in
07:43 12.6 °F 13.0 °F 1015.1 in SSW 15.8 mph 15.8 mph 98 % 0.0 in
07:48 12.6 °F 13.0 °F 1014.1 in SSW 15.8 mph 15.8 mph 98 % 0.0 in
07:58 12.6 °F 13.0 °F 1014.1 in SSW 15.8 mph 15.8 mph 98 % 0.0 in
08:03 12.7 °F 13.0 °F 1014.1 in SSW 15.8 mph 15.8 mph 98 % 0.0 in
08:08 12.7 °F 13.0 °F 1014.1 in SSW 15.8 mph 15.8 mph 98 % 0.0 in
08:13 12.6 °F 13.0 °F 1014.1 in SSW 15.8 mph 15.8 mph 98 % 0.0 in
08:18 12.6 °F 13.0 °F 1014.1 in SSW 15.8 mph 15.8 mph 98 % 0.0 in
08:23 12.6 °F 13.0 °F 1014.1 in SSW 15.8 mph 15.8 mph 98 % 0.0 in
08:38 12.7 °F 13.0 °F 1013.1 in SSW 15.8 mph 15.8 mph 98 % 0.0 in
08:43 12.7 °F 13.0 °F 1013.1 in SSW 15.8 mph 15.8 mph 98 % 0.0 in
08:48 12.8 °F 13.0 °F 1013.1 in SSW 15.8 mph 15.8 mph 98 % 0.0 in
08:53 12.8 °F 13.0 °F 1013.1 in SSW 15.8 mph 15.8 mph 98 % 0.0 in
08:59 12.8 °F 13.0 °F 1013.1 in SSW 15.8 mph 15.8 mph 98 % 0.0 in
09:04 12.8 °F 13.0 °F 1013.1 in SSW 15.8 mph 15.8 mph 98 % 0.0 in
09:09 12.8 °F 13.0 °F 1013.1 in SSW 15.8 mph 15.8 mph 98 % 0.0 in
09:14 12.9 °F 13.0 °F 1013.1 in SSW 15.8 mph 15.8 mph 98 % 0.0 in
09:19 12.9 °F 13.0 °F 1013.1 in Calm     98 % 0.0 in
09:26 0.0 °F 13.0 °F 1013.1 in Calm     0 % 0.0 in
09:31 0.0 °F 13.0 °F 1013.1 in Calm     0 % 0.0 in
09:36 0.0 °F 13.0 °F 1013.1 in Calm     0 % 0.0 in
09:47 0.0 °F 13.0 °F 1013.1 in Calm     0 % 0.0 in
09:52 0.0 °F 13.0 °F 1013.1 in Calm     0 % 0.0 in
09:57 0.0 °F 13.0 °F 1013.1 in Calm     0 % 0.0 in
10:07 0.0 °F 13.0 °F 1013.1 in Calm     0 % 0.0 in
10:22 13.3 °F 13.0 °F 1013.1 in Calm     97 % 0.0 in
10:27 13.3 °F 13.0 °F 1013.1 in South 20.9 mph 31.4 mph 97 % 0.0 in
10:32 13.4 °F 13.0 °F 1012.1 in SSW 21.2 mph 31.4 mph 96 % 0.0 in
10:42 13.5 °F 13.0 °F 1012.1 in SSW 15.8 mph 26.2 mph 96 % 0.0 in
10:47 13.5 °F 13.0 °F 1013.1 in SSW 23.8 mph 37.5 mph 96 % 0.0 in
10:52 13.5 °F 13.0 °F 1013.1 in SW 10.5 mph 37.5 mph 96 % 0.0 in
10:57 13.5 °F 13.0 °F 1013.1 in SSW 19.1 mph 28.0 mph 96 % 0.0 in
11:02 13.8 °F 13.0 °F 1013.1 in WSW 22.4 mph 34.3 mph 94 % 0.0 in
11:07 13.8 °F 13.0 °F 1013.1 in South 17.7 mph 34.3 mph 94 % 0.0 in
11:12 14.2 °F 13.0 °F 1013.1 in SSW 20.6 mph 32.0 mph 92 % 0.0 in
11:17 14.2 °F 13.0 °F 1013.1 in SSW 17.7 mph 32.3 mph 92 % 0.0 in
11:22 14.6 °F 13.0 °F 1013.1 in SSW 23.8 mph 32.3 mph 91 % 0.0 in
11:27 14.7 °F 13.0 °F 1013.1 in SSW 17.7 mph 39.3 mph 90 % 0.0 in
11:32 14.5 °F 13.0 °F 1013.1 in SSW 24.8 mph 39.3 mph 89 % 0.0 in
11:37 14.5 °F 13.0 °F 1013.1 in South 21.2 mph 38.1 mph 88 % 0.0 in
11:42 14.7 °F 13.0 °F 1013.1 in South 21.2 mph 38.1 mph 88 % 0.0 in
11:47 14.7 °F 13.0 °F 1012.1 in SSW 38.9 mph 38.9 mph 87 % 0.0 in
11:52 14.6 °F 13.0 °F 1012.1 in South 32.0 mph 41.7 mph 87 % 0.0 in
11:57 14.5 °F 13.0 °F 1012.1 in SSW 24.8 mph 41.7 mph 88 % 0.0 in
12:02 14.5 °F 13.0 °F 1012.1 in SSW 26.2 mph 41.4 mph 89 % 0.0 in
12:07 14.5 °F 13.0 °F 1012.1 in SSW 16.3 mph 41.4 mph 90 % 0.0 in
12:12 14.6 °F 13.0 °F 1012.1 in SSW 18.0 mph 36.7 mph 90 % 0.0 in
12:17 14.7 °F 13.0 °F 1011.1 in SSW 31.7 mph 43.1 mph 89 % 0.0 in
12:22 14.6 °F 13.0 °F 1011.1 in WSW 37.0 mph 43.1 mph 89 % 0.0 in
12:27 14.7 °F 13.0 °F 1011.1 in SSW 22.7 mph 37.0 mph 89 % 0.0 in
12:32 14.8 °F 13.0 °F 1010.0 in SW 26.7 mph 42.2 mph 87 % 0.0 in
12:38 14.9 °F 13.0 °F 1010.0 in SSW 28.5 mph 42.2 mph 86 % 0.0 in
12:43 14.9 °F 13.0 °F 1010.0 in SSW 25.6 mph 39.3 mph 85 % 0.0 in
12:48 14.9 °F 13.0 °F 1011.1 in SSW 24.5 mph 38.9 mph 84 % 0.0 in
12:53 14.8 °F 12.0 °F 1011.1 in SW 39.6 mph 39.6 mph 84 % 0.0 in
12:58 14.8 °F 12.0 °F 1011.1 in SSW 28.5 mph 40.4 mph 83 % 0.0 in
13:03 14.8 °F 12.0 °F 1011.1 in SSW 20.1 mph 40.4 mph 83 % 0.0 in
13:08 14.8 °F 12.0 °F 1011.1 in SSW 27.7 mph 40.4 mph 83 % 0.0 in
13:13 14.8 °F 12.0 °F 1011.1 in South 35.6 mph 40.4 mph 83 % 0.0 in
13:18 14.6 °F 12.0 °F 1011.1 in South 33.1 mph 39.3 mph 82 % 0.0 in
13:23 14.5 °F 12.0 °F 1011.1 in SSW 31.4 mph 43.9 mph 81 % 0.0 in
13:28 14.4 °F 11.0 °F 1011.1 in WSW 23.8 mph 47.5 mph 81 % 0.0 in
13:33 14.5 °F 12.0 °F 1011.1 in SSW 37.8 mph 47.5 mph 81 % 0.0 in
13:38 14.5 °F 12.0 °F 1011.1 in SW 24.8 mph 41.0 mph 81 % 0.0 in
13:43 14.5 °F 12.0 °F 1011.1 in SSW 24.8 mph 41.0 mph 80 % 0.0 in
13:48 14.6 °F 11.0 °F 1010.0 in SSW 38.9 mph 51.8 mph 78 % 0.0 in
13:53 14.6 °F 11.0 °F 1010.0 in SW 38.1 mph 51.8 mph 79 % 0.0 in
13:58 14.5 °F 11.0 °F 1010.0 in SW 39.6 mph 42.5 mph 78 % 0.0 in
14:03 14.5 °F 11.0 °F 1010.0 in SSW 42.8 mph 42.8 mph 78 % 0.0 in
14:08 14.4 °F 11.0 °F 1010.0 in SSW 28.0 mph 42.8 mph 79 % 0.0 in
14:13 14.4 °F 11.0 °F 1010.0 in SW 28.0 mph 42.8 mph 78 % 0.0 in
14:18 14.4 °F 11.0 °F 1010.0 in SSW 27.4 mph 39.3 mph 78 % 0.0 in
14:23 14.3 °F 11.0 °F 1010.0 in SW 28.0 mph 39.3 mph 78 % 0.0 in
14:28 14.2 °F 11.0 °F 1010.0 in SSW 27.0 mph 37.5 mph 78 % 0.0 in
14:33 14.2 °F 11.0 °F 1010.0 in SW 38.5 mph 38.5 mph 77 % 0.0 in
14:38 14.2 °F 11.0 °F 1010.0 in SW 52.6 mph 52.6 mph 77 % 0.0 in
14:43 14.1 °F 10.0 °F 1009.0 in SW 37.8 mph 52.6 mph 77 % 0.0 in
14:49 14.1 °F 10.0 °F 1009.0 in SSW 28.5 mph 38.5 mph 78 % 0.0 in
14:54 14.1 °F 10.0 °F 1009.0 in South 38.9 mph 38.9 mph 78 % 0.0 in
15:04 14.2 °F 11.0 °F 1009.0 in SSW 22.7 mph 38.9 mph 77 % 0.0 in
15:09 14.2 °F 11.0 °F 1009.0 in SSW 26.2 mph 28.8 mph 77 % 0.0 in
15:14 14.2 °F 10.0 °F 1009.0 in SSW 20.9 mph 26.2 mph 76 % 0.0 in
15:19 14.1 °F 10.0 °F 1009.0 in SSW 24.5 mph 30.2 mph 76 % 0.0 in
15:24 14.1 °F 10.0 °F 1009.0 in SSW 20.9 mph 30.2 mph 76 % 0.0 in
15:34 14.0 °F 10.0 °F 1009.0 in SSW 20.6 mph 37.0 mph 75 % 0.0 in
15:39 14.0 °F 10.0 °F 1009.0 in SSW 28.8 mph 37.0 mph 75 % 0.0 in
15:49 14.0 °F 10.0 °F 1009.0 in SSW 24.5 mph 32.0 mph 75 % 0.0 in
15:54 14.0 °F 10.0 °F 1009.0 in SW 30.9 mph 32.8 mph 75 % 0.0 in
15:59 14.0 °F 10.0 °F 1009.0 in WSW 28.0 mph 33.5 mph 74 % 0.0 in
16:04 14.0 °F 10.0 °F 1009.0 in SW 23.3 mph 36.0 mph 74 % 0.0 in
16:09 14.0 °F 10.0 °F 1009.0 in SW 15.4 mph 37.8 mph 74 % 0.0 in
16:14 14.0 °F 9.0 °F 1008.0 in SSW 24.5 mph 37.8 mph 73 % 0.0 in
16:19 14.0 °F 10.0 °F 1008.0 in South 16.3 mph 35.2 mph 74 % 0.0 in
16:24 13.9 °F 9.0 °F 1008.0 in South 24.8 mph 31.4 mph 73 % 0.0 in
16:34 13.9 °F 9.0 °F 1009.0 in SW 17.2 mph 36.4 mph 73 % 0.0 in
16:39 13.8 °F 9.0 °F 1009.0 in SW 15.8 mph 36.4 mph 74 % 0.0 in
16:44 13.8 °F 9.0 °F 1009.0 in SSW 16.6 mph 28.8 mph 73 % 0.0 in
16:49 13.8 °F 9.0 °F 1009.0 in SW 19.8 mph 28.8 mph 74 % 0.0 in
16:54 13.7 °F 9.0 °F 1009.0 in SSW 28.5 mph 28.5 mph 74 % 0.0 in
16:59 13.7 °F 9.0 °F 1009.0 in SSW 19.8 mph 28.5 mph 74 % 0.0 in
17:04 13.6 °F 9.0 °F 1009.0 in SSW 17.7 mph 28.5 mph 74 % 0.0 in
17:14 13.5 °F 9.0 °F 1009.0 in SSW 18.0 mph 24.5 mph 74 % 0.0 in
17:30 13.4 °F 9.0 °F 1009.0 in SSW 19.8 mph 32.3 mph 75 % 0.0 in
17:35 13.3 °F 9.0 °F 1009.0 in SSW 15.8 mph 27.7 mph 75 % 0.0 in
17:40 13.3 °F 9.0 °F 1009.0 in SSW 14.0 mph 23.0 mph 76 % 0.0 in
17:45 13.1 °F 9.0 °F 1009.0 in SW 20.6 mph 28.8 mph 77 % 0.0 in
17:50 13.1 °F 9.0 °F 1009.0 in SSW 17.2 mph 31.4 mph 77 % 0.0 in
17:55 13.0 °F 9.0 °F 1009.0 in SSW 16.3 mph 31.4 mph 77 % 0.0 in
18:00 13.0 °F 9.0 °F 1008.0 in South 14.0 mph 28.8 mph 77 % 0.0 in
18:05 12.9 °F 9.0 °F 1008.0 in South 17.2 mph 32.0 mph 78 % 0.0 in
18:10 12.9 °F 9.0 °F 1008.0 in SSW 27.0 mph 32.0 mph 78 % 0.0 in
18:15 12.9 °F 9.0 °F 1008.0 in SSW 17.2 mph 31.4 mph 78 % 0.0 in
18:20 12.9 °F 9.0 °F 1008.0 in South 23.8 mph 35.6 mph 78 % 0.0 in
18:25 12.9 °F 9.0 °F 1008.0 in South 25.3 mph 35.6 mph 78 % 0.0 in
18:30 12.8 °F 9.0 °F 1008.0 in SW 23.0 mph 36.7 mph 78 % 0.0 in
18:35 12.8 °F 9.0 °F 1008.0 in SSW 24.5 mph 36.7 mph 78 % 0.0 in
18:40 12.8 °F 9.0 °F 1008.0 in SSW 28.8 mph 36.4 mph 78 % 0.0 in
18:55 12.8 °F 9.0 °F 1007.0 in SW 19.8 mph 28.0 mph 78 % 0.0 in
19:00 12.8 °F 9.0 °F 1008.0 in SW 25.6 mph 28.5 mph 78 % 0.0 in
19:05 12.8 °F 9.0 °F 1008.0 in SW 21.9 mph 36.0 mph 78 % 0.0 in
19:11 12.8 °F 9.0 °F 1008.0 in SW 16.9 mph 36.0 mph 78 % 0.0 in
19:16 12.8 °F 9.0 °F 1007.0 in SSW 24.8 mph 35.6 mph 78 % 0.0 in
19:21 12.8 °F 9.0 °F 1007.0 in SSW 20.9 mph 35.6 mph 78 % 0.0 in
19:30 12.8 °F 9.0 °F 1008.0 in SSE 29.1 mph 30.2 mph 78 % 0.0 in
19:36 12.7 °F 10.0 °F 1008.0 in SW 19.8 mph 30.2 mph 80 % 0.0 in
19:46 12.4 °F 10.0 °F 1008.0 in SSW 17.2 mph 28.0 mph 82 % 0.0 in
19:51 12.5 °F 10.0 °F 1008.0 in SSW 14.3 mph 30.9 mph 82 % 0.0 in
19:56 12.5 °F 10.0 °F 1008.0 in SSW 19.8 mph 32.3 mph 82 % 0.0 in
20:01 12.6 °F 10.0 °F 1007.0 in SSW 32.0 mph 35.2 mph 81 % 0.0 in
20:06 12.7 °F 10.0 °F 1007.0 in SSW 27.4 mph 35.2 mph 80 % 0.0 in
20:11 12.8 °F 10.0 °F 1007.0 in SSW 28.0 mph 30.9 mph 80 % 0.0 in
20:16 12.7 °F 10.0 °F 1008.0 in SW 27.0 mph 36.4 mph 81 % 0.0 in
20:21 12.6 °F 10.0 °F 1008.0 in SSW 20.6 mph 36.4 mph 81 % 0.0 in
20:26 12.6 °F 10.0 °F 1008.0 in SSW 27.7 mph 31.4 mph 81 % 0.0 in
20:31 12.5 °F 10.0 °F 1008.0 in WSW 28.0 mph 30.9 mph 83 % 0.0 in
20:36 11.1 °F 8.0 °F 1008.0 in WSW 13.0 mph 28.5 mph 81 % 0.3 in
20:41 10.1 °F 7.0 °F 1008.0 in West 5.0 mph 28.5 mph 83 % 1.3 in
20:51 9.3 °F 7.0 °F 1009.0 in WNW 11.9 mph 11.9 mph 86 % 1.8 in
21:01 8.9 °F 8.0 °F 1010.0 in WNW 10.1 mph 14.0 mph 91 % 2.3 in
21:06 8.7 °F 8.0 °F 1010.0 in WNW 14.0 mph 14.0 mph 92 % 2.5 in
21:11 8.6 °F 8.0 °F 1010.0 in WNW 3.5 mph 14.0 mph 92 % 2.5 in
21:16 8.5 °F 8.0 °F 1009.0 in NW 9.7 mph 20.1 mph 94 % 2.5 in
21:21 8.5 °F 8.0 °F 1009.0 in WSW 4.7 mph 21.2 mph 94 % 2.8 in
21:31 8.4 °F 8.0 °F 1010.0 in Calm   18.0 mph 95 % 2.8 in
21:36 8.3 °F 8.0 °F 1010.0 in SSW 6.9 mph 18.0 mph 96 % 2.5 in
21:41 8.3 °F 8.0 °F 1010.0 in West 9.3 mph 15.4 mph 96 % 1.8 in
21:51 8.3 °F 8.0 °F 1010.0 in West 14.8 mph 14.8 mph 97 % 1.3 in
21:57 8.3 °F 9.0 °F 1010.0 in West 9.0 mph 14.8 mph 98 % 0.8 in
22:02 8.3 °F 9.0 °F 1011.1 in West 9.0 mph 14.8 mph 98 % 0.8 in
22:07 8.3 °F 9.0 °F 1011.1 in WSW 9.7 mph 9.7 mph 98 % 0.5 in
22:12 8.3 °F 9.0 °F 1011.1 in WSW 9.7 mph 9.7 mph 98 % 0.5 in
22:17 8.3 °F 9.0 °F 1011.1 in WSW 9.7 mph 9.7 mph 98 % 0.5 in
22:22 8.3 °F 9.0 °F 1011.1 in WSW 14.0 mph 14.0 mph 98 % 0.3 in
22:27 8.3 °F 9.0 °F 1011.1 in WSW 14.0 mph 14.0 mph 98 % 0.5 in
22:32 8.3 °F 9.0 °F 1010.0 in WSW 13.7 mph 14.0 mph 98 % 0.5 in
22:37 8.3 °F 9.0 °F 1010.0 in WSW 11.1 mph 20.1 mph 98 % 0.5 in
22:42 8.3 °F 9.0 °F 1010.0 in WSW 13.7 mph 18.3 mph 98 % 0.3 in
22:47 8.3 °F 9.0 °F 1011.1 in WSW 20.1 mph 21.2 mph 98 % 0.3 in
22:52 8.2 °F 8.0 °F 1011.1 in WSW 22.7 mph 22.7 mph 98 % 0.3 in
22:55 8.2 °F 8.0 °F 1011.1 in WSW 16.6 mph 22.7 mph 98 % 0.3 in
23:00 8.2 °F 8.0 °F 1011.1 in West 13.0 mph 22.7 mph 98 % 0.3 in
23:05 8.2 °F 8.0 °F 1011.1 in WSW 19.8 mph 20.9 mph 98 % 0.3 in
23:10 8.2 °F 8.0 °F 1011.1 in WSW 20.6 mph 24.5 mph 98 % 0.3 in
23:15 8.2 °F 8.0 °F 1011.1 in WSW 13.7 mph 28.5 mph 98 % 0.3 in
23:20 8.1 °F 8.0 °F 1011.1 in WSW 14.0 mph 28.5 mph 98 % 0.3 in
23:25 8.1 °F 8.0 °F 1011.1 in WSW 13.7 mph 20.9 mph 98 % 0.0 in
23:31 8.1 °F 8.0 °F 1011.1 in West 13.0 mph 17.7 mph 98 % 0.0 in
23:36 8.0 °F 8.0 °F 1011.1 in WSW 11.9 mph 17.7 mph 98 % 0.0 in
23:41 8.0 °F 8.0 °F 1011.1 in SSW 16.9 mph 17.7 mph 98 % 0.0 in
23:46 8.0 °F 8.0 °F 1011.1 in WSW 13.7 mph 19.5 mph 98 % 0.0 in
23:51 8.0 °F 8.0 °F 1011.1 in SW 13.7 mph 19.5 mph 98 % 0.0 in
23:56 7.9 °F 8.0 °F 1011.1 in WSW 12.2 mph 16.9 mph 98 % 0.0 in
Le Gheer Warneton
Courtoisie de Weather Underground - 2 mb

Mise a jour : 25/02/2018 18:17:11
Généré par Cumulus 1.9.4 (1099)